• In Uzbekistan
  • List of Countries
  • For 7 days
  • Water Temperature
  • Satellite Maps
  • Weather Map
  • Weather Widgets
  • user-avatar
    Login

    Hourly Weather Kirzya

    Today, 28 May, Monday

    Time Temperature Precipitation Wind Pressure Humidity
    00:00 +11°C° 1.3 mm 6 mps 740 mmHg 93%
    01:00 +11°C° 1.3 mm 6 mps 739 mmHg 93%
    02:00 +10°C° 2.5 mm 5 mps 739 mmHg 94%
    03:00 +9°C° 2.5 mm 5 mps 738 mmHg 94%
    04:00 +8°C° 2.5 mm 4 mps 738 mmHg 95%
    05:00 +7°C° 1.4 mm 4 mps 738 mmHg 94%
    06:00 +7°C° 1.4 mm 4 mps 738 mmHg 93%
    07:00 +7°C° 1.4 mm 3 mps 739 mmHg 92%
    08:00 +8°C° 0.2 mm 3 mps 739 mmHg 84%
    09:00 +10°C° 0.2 mm 3 mps 740 mmHg 75%
    10:00 +11°C° 0.2 mm 3 mps 740 mmHg 66%
    11:00 +11°C° 0.6 mm 4 mps 741 mmHg 69%
    12:00 +11°C° 0.6 mm 4 mps 741 mmHg 71%
    13:00 +10°C° 0.6 mm 5 mps 741 mmHg 73%
    14:00 +9°C° 0.5 mm 5 mps 742 mmHg 74%
    15:00 +9°C° 0.5 mm 5 mps 742 mmHg 75%
    16:00 +8°C° 0.5 mm 5 mps 743 mmHg 76%
    17:00 +8°C° 0.1 mm 4 mps 743 mmHg 73%
    18:00 +7°C° 0.1 mm 4 mps 743 mmHg 71%
    19:00 +7°C° 0.1 mm 4 mps 744 mmHg 69%
    20:00 +7°C° 0 mm 3 mps 744 mmHg 71%
    21:00 +4°C° 0 mm 3 mps 745 mmHg 73%
    22:00 +3°C° 0 mm 3 mps 745 mmHg 75%
    23:00 +3°C° 0 mm 3 mps 746 mmHg 78%

    Tomorrow, 29 May, Tuesday

    Time Temperature Precipitation Wind Pressure Humidity
    00:00 +2°C° 0 mm 3 mps 746 mmHg 80%
    01:00 +2°C° 0 mm 3 mps 746 mmHg 82%
    02:00 +2°C° 0 mm 2 mps 746 mmHg 84%
    03:00 +2°C° 0 mm 2 mps 747 mmHg 86%
    04:00 +1°C° 0 mm 2 mps 747 mmHg 88%
    05:00 +3°C° 0 mm 2 mps 747 mmHg 82%
    06:00 +3°C° 0 mm 3 mps 747 mmHg 75%
    07:00 +5°C° 0 mm 3 mps 747 mmHg 68%
    08:00 +7°C° 0 mm 3 mps 746 mmHg 62%
    09:00 +7°C° 0 mm 4 mps 746 mmHg 55%
    10:00 +8°C° 0 mm 4 mps 746 mmHg 49%
    11:00 +8°C° 0.1 mm 4 mps 745 mmHg 50%
    12:00 +10°C° 0.1 mm 4 mps 745 mmHg 52%
    13:00 +10°C° 0.1 mm 4 mps 745 mmHg 53%
    14:00 +10°C° 0.1 mm 4 mps 744 mmHg 56%
    15:00 +10°C° 0.1 mm 4 mps 744 mmHg 59%
    16:00 +10°C° 0.1 mm 4 mps 744 mmHg 62%
    17:00 +9°C° 0.1 mm 3 mps 743 mmHg 68%
    18:00 +9°C° 0.1 mm 3 mps 743 mmHg 74%
    19:00 +8°C° 0.1 mm 2 mps 743 mmHg 79%
    20:00 +7°C° 0 mm 2 mps 743 mmHg 84%
    21:00 +7°C° 0 mm 1 mps 743 mmHg 90%
    22:00 +5°C° 0 mm 1 mps 743 mmHg 95%
    23:00 +5°C° 0 mm 1 mps 743 mmHg 96%

    Day after tomorrow, 30 May, Wednesday

    Time Temperature Precipitation Wind Pressure Humidity
    00:00 +5°C° 0 mm 1 mps 742 mmHg 96%
    01:00 +5°C° 0 mm 1 mps 742 mmHg 97%
    02:00 +5°C° 0 mm 1 mps 742 mmHg 97%
    03:00 +4°C° 0 mm 2 mps 742 mmHg 97%
    04:00 +4°C° 0 mm 2 mps 742 mmHg 97%
    05:00 +5°C° 0 mm 2 mps 742 mmHg 95%
    06:00 +5°C° 0 mm 3 mps 741 mmHg 93%
    07:00 +7°C° 0 mm 3 mps 741 mmHg 90%
    08:00 +9°C° 0 mm 3 mps 741 mmHg 85%
    09:00 +10°C° 0 mm 4 mps 740 mmHg 80%
    10:00 +11°C° 0 mm 4 mps 740 mmHg 75%
    11:00 +10°C° 0.4 mm 5 mps 739 mmHg 81%
    12:00 +9°C° 0.4 mm 5 mps 738 mmHg 86%
    13:00 +9°C° 0.4 mm 6 mps 738 mmHg 91%
    14:00 +10°C° 0.1 mm 6 mps 737 mmHg 89%
    15:00 +13°C° 0.1 mm 6 mps 736 mmHg 87%
    16:00 +14°C° 0.1 mm 6 mps 736 mmHg 85%
    17:00 +15°C° 0.4 mm 6 mps 735 mmHg 85%
    18:00 +15°C° 0.4 mm 6 mps 734 mmHg 85%
    19:00 +15°C° 0.4 mm 5 mps 733 mmHg 84%
    20:00 +15°C° 0.9 mm 6 mps 732 mmHg 87%
    21:00 +14°C° 0.9 mm 6 mps 732 mmHg 90%
    22:00 +14°C° 0.9 mm 6 mps 731 mmHg 92%
    23:00 +13°C° 1.5 mm 6 mps 731 mmHg 92%

    31 May, Thursday

    Time Temperature Precipitation Wind Pressure Humidity
    00:00 +13°C° 1.5 mm 6 mps 730 mmHg 93%
    01:00 +13°C° 1.5 mm 6 mps 730 mmHg 93%
    02:00 +12°C° 0.5 mm 5 mps 730 mmHg 93%
    03:00 +10°C° 0.5 mm 5 mps 730 mmHg 94%
    04:00 +9°C° 0.5 mm 5 mps 731 mmHg 94%
    05:00 +9°C° 0 mm 5 mps 731 mmHg 93%
    06:00 +9°C° 0 mm 6 mps 732 mmHg 91%
    07:00 +9°C° 0 mm 6 mps 732 mmHg 90%
    08:00 +9°C° 0.1 mm 6 mps 733 mmHg 88%
    09:00 +9°C° 0.1 mm 6 mps 733 mmHg 85%
    10:00 +9°C° 0.1 mm 6 mps 734 mmHg 83%
    11:00 +9°C° 0.1 mm 6 mps 734 mmHg 80%
    12:00 +9°C° 0.1 mm 6 mps 735 mmHg 77%
    13:00 +10°C° 0.1 mm 6 mps 735 mmHg 74%
    14:00 +10°C° 0.1 mm 6 mps 736 mmHg 71%
    15:00 +9°C° 0.1 mm 6 mps 736 mmHg 69%
    16:00 +9°C° 0.1 mm 6 mps 737 mmHg 66%
    17:00 +9°C° 0 mm 5 mps 737 mmHg 69%
    18:00 +8°C° 0 mm 4 mps 737 mmHg 71%
    19:00 +9°C° 0 mm 3 mps 738 mmHg 73%
    20:00 +8°C° 0 mm 3 mps 738 mmHg 77%
    21:00 +7°C° 0 mm 3 mps 739 mmHg 81%
    22:00 +6°C° 0 mm 2 mps 739 mmHg 85%
    23:00 +5°C° 0 mm 2 mps 740 mmHg 87%

    1 June, Friday

    Time Temperature Precipitation Wind Pressure Humidity
    00:00 +4°C° 0 mm 2 mps 740 mmHg 89%
    01:00 +3°C° 0 mm 2 mps 740 mmHg 91%
    02:00 +2°C° 0 mm 2 mps 741 mmHg 92%
    03:00 +2°C° 0 mm 2 mps 741 mmHg 93%
    04:00 +1°C° 0 mm 2 mps 742 mmHg 94%
    05:00 +3°C° 0 mm 2 mps 743 mmHg 88%
    06:00 +3°C° 0 mm 3 mps 743 mmHg 82%
    07:00 +5°C° 0 mm 3 mps 744 mmHg 75%
    08:00 +7°C° 0 mm 3 mps 744 mmHg 69%
    09:00 +9°C° 0 mm 3 mps 744 mmHg 62%
    10:00 +10°C° 0 mm 3 mps 745 mmHg 55%
    11:00 +11°C° 0 mm 3 mps 745 mmHg 52%
    12:00 +12°C° 0 mm 3 mps 745 mmHg 48%
    13:00 +13°C° 0 mm 3 mps 745 mmHg 45%
    14:00 +13°C° 0 mm 3 mps 745 mmHg 47%
    15:00 +13°C° 0 mm 3 mps 745 mmHg 48%
    16:00 +13°C° 0 mm 3 mps 745 mmHg 50%
    17:00 +12°C° 0 mm 3 mps 746 mmHg 55%
    18:00 +12°C° 0 mm 2 mps 746 mmHg 59%
    19:00 +12°C° 0 mm 2 mps 746 mmHg 64%
    20:00 +9°C° 0 mm 2 mps 746 mmHg 70%
    21:00 +8°C° 0 mm 1 mps 747 mmHg 75%
    22:00 +6°C° 0 mm 1 mps 747 mmHg 81%
    23:00 +6°C° 0 mm 1 mps 747 mmHg 82%

    2 June, Saturday

    Time Temperature Precipitation Wind Pressure Humidity
    00:00 +5°C° 0 mm 1 mps 747 mmHg 82%
    01:00 +4°C° 0 mm 1 mps 747 mmHg 83%
    02:00 +4°C° 0 mm 1 mps 747 mmHg 84%
    03:00 +4°C° 0 mm 1 mps 748 mmHg 84%
    04:00 +3°C° 0 mm 1 mps 748 mmHg 85%
    05:00 +5°C° 0 mm 1 mps 748 mmHg 77%
    06:00 +7°C° 0 mm 1 mps 748 mmHg 69%
    07:00 +8°C° 0 mm 2 mps 748 mmHg 61%
    08:00 +9°C° 0 mm 2 mps 748 mmHg 55%
    09:00 +10°C° 0 mm 2 mps 748 mmHg 49%
    10:00 +13°C° 0 mm 2 mps 748 mmHg 44%
    11:00 +13°C° 0 mm 2 mps 748 mmHg 44%
    12:00 +12°C° 0 mm 3 mps 748 mmHg 44%
    13:00 +12°C° 0 mm 3 mps 748 mmHg 44%
    14:00 +12°C° 0 mm 3 mps 748 mmHg 44%
    15:00 +12°C° 0 mm 3 mps 748 mmHg 45%
    16:00 +13°C° 0 mm 3 mps 748 mmHg 45%
    17:00 +12°C° 0 mm 3 mps 748 mmHg 49%
    18:00 +11°C° 0 mm 3 mps 748 mmHg 54%
    19:00 +12°C° 0 mm 2 mps 748 mmHg 59%
    20:00 +9°C° 0 mm 2 mps 748 mmHg 66%
    21:00 +8°C° 0 mm 1 mps 749 mmHg 73%
    22:00 +6°C° 0 mm 1 mps 749 mmHg 80%
    23:00 +5°C° 0 mm 1 mps 749 mmHg 81%
    Show more